Weather Roundup
Issued by NWS

Home | Current Version | Previous Version | Graphics & Text | Print | Product List | Glossary Off
Versions: 1 2 3 4 5 6 7 8 9 10 11 12 13 14 15 16 17 18 19 20 21 22 23 24 25 26 27 28 29 30 31 32 33 34 35 36 37 38 39 40 41 42 43 44 45 46 47 48 49 50

000
NZUS93 KARX 281710
HRRWXR

CURRENT HOURLY OBSERVATIONS ACROSS
MUCH OF THE UPPER MISSISSIPPI VALLEY
NATIONAL WEATHER SERVICE LA CROSSE WI
1200 PM CDT SAT MAY 28 2016


...SOUTHEAST MINNESOTA...


CITY           SKY/WX    TMP DP  RH WIND       PRES   REMARKS
ROCHESTER      LGT RAIN  67  65  93 S10       29.78S
ROCHESTER/MAYO CLOUDY    66  66 100 CALM      29.78F
WINONA         CLOUDY    70  66  88 CALM      29.79R FOG
AUSTIN         PTSUNNY   68  63  83 SW12      29.78S
ALBERT LEA     RAIN      66  63  88 SW8       29.78R
DODGE CENTER   CLOUDY    70  64  83 S8        29.78S
PRESTON        CLOUDY    70  61  73 S17       29.80R
OWATONNA       DRIZZLE   68  63  83 S8        29.77S
FARIBAULT      CLOUDY    70  63  78 SE6       29.77S
$$

...ELSEWHERE IN MINNESOTA...


CITY           SKY/WX    TMP DP  RH WIND       PRES   REMARKS
MINNEAPOLIS    CLOUDY    66  59  78 N3        29.77R
INTNL FALLS    CLOUDY    59  56  89 NE9       29.83S FOG
DULUTH         FOG       47  46  97 CALM      29.80R VSB 1/8
RED WING       CLOUDY    70  63  78 SE5       29.75R
REDWOOD FALLS  RAIN      60  57  89 NE5       29.79R FOG
MANKATO        CLOUDY    66  63  88 NE8       29.76S
WORTHINGTON    LGT RAIN  63  60  90 N9        29.78S
FAIRMONT       CLOUDY    64  59  82 S8        29.78R
$$

...SOUTHWEST WISCONSIN...


CITY           SKY/WX    TMP DP  RH WIND       PRES   REMARKS
LA CROSSE      CLOUDY    72  63  73 SW9       29.78R
PRAIRIE DU CHI PTSUNNY   73  62  67 S8        29.81S
BOSCOBEL       CLOUDY    74  64  71 S10       29.82R
LONE ROCK      CLOUDY    77  64  64 SW17G24   29.83S
PLATTEVILLE    MOSUNNY   76  67  73 SW20      29.85R
FORT MC COY    PTSUNNY   73  66  79 S8        29.79R
MAUSTON-NEW LI CLOUDY    73  65  76 S12G17    29.80R
VIROQUA        CLOUDY    70  64  79 S15       29.82R
WIS DELLS      CLOUDY    74  62  66 SW21G26   29.82R
$$

...ELSEWHERE IN WISCONSIN...


CITY           SKY/WX    TMP DP  RH WIND       PRES   REMARKS
MILWAUKEE      CLOUDY    77  66  68 S21G28    29.88S
MADISON        CLOUDY    76  65  68 SW10G21   29.83S
GREEN BAY      CLOUDY    75  65  70 S16G30    29.82R
EAU CLAIRE     CLOUDY    72  63  73 W3        29.75S
BLACK RVR FLS  RAIN      68  68 100 SW10      29.77R
MEDFORD        CLOUDY    68  68 100 SE7       29.76S
WAUSAU         CLOUDY    72  66  81 S14       29.75S
WIS RAPIDS     CLOUDY    72  64  76 SW17G24   29.80R
MARSHFIELD     CLOUDY    72  66  81 SW15      29.76R
RICE LAKE      CLOUDY    66  61  83 CALM      29.79R
$$

...NORTHEAST IOWA...


CITY           SKY/WX    TMP DP  RH WIND       PRES   REMARKS
WATERLOO       PTSUNNY   73  62  68 S12       29.79R
DUBUQUE        PTSUNNY   73  64  73 SW15      29.84S
DECORAH        PTSUNNY   70  64  83 S9G16     29.80S
MASON CITY     CLOUDY    68  63  84 S7        29.79F
CHARLES CITY   PTSUNNY   68  68 100 S13       29.80S
OELWEIN        PTSUNNY   72  64  78 S17       29.82R
$$

...ELSEWHERE IN IOWA...


CITY           SKY/WX    TMP DP  RH WIND       PRES   REMARKS
DES MOINES     CLOUDY    71  59  65 SW13      29.79R
IOWA CITY      SUNNY     78  63  59 S15G24    29.83S
FORT DODGE     CLOUDY    73  61  64 S8        29.77F
MARSHALLTOWN   CLOUDY    70  62  76 S13       29.78S
CEDAR RAPIDS   MOSUNNY   76  66  71 S15       29.81S
$$

...NORTHERN ILLINOIS...


CITY           SKY/WX    TMP DP  RH WIND       PRES   REMARKS
CHICAGO-OHARE  CLOUDY    74  64  71 S15G29    29.92R
CHICAGO-MIDWAY CLOUDY    76  64  66 S14G23    29.93R
MOLINE         MOSUNNY   80  65  59 S14G22    29.84S
ROCKFORD       CLOUDY    76  65  68 SW13G24   29.90S
PEORIA         PTSUNNY   78  64  61 S20       29.91S
$$

NOTE: "FAIR" INDICATES FEW OR NO CLOUDS BELOW 12,000 FEET WITH NO
SIGNIFICANT WEATHER AND/OR OBSTRUCTIONS TO VISIBILITY. WIND
SPEEDS ARE IN MILES-PER-HOUR.




USA.gov is the U.S. government's official web portal to all federal, state and local government web resources and services.